Greenville, SC

11:05 PM EDT on April 23, 2017 (GMT -0400)
Donaldson Center

Weather History for KGYH - October, 2013

Change the Weather History Date:

Wednesday, October 23, 2013

  Actual Average (KGMU) Record (KGMU)
Temperature  
Mean Temperature 52 °F -  
Max Temperature 64 °F 67 °F 81 °F (2015)
Min Temperature 41 °F 49 °F 37 °F (2006)
Degree Days  
Heating Degree Days 12    
Growing Degree Days 2 (Base 50)    
Moisture  
Dew Point 43 °F    
Average Humidity 77    
Maximum Humidity 100    
Minimum Humidity 30    
Precipitation  
Precipitation 0.00 in - - ()
Sea Level Pressure  
Sea Level Pressure 29.87 in    
Wind  
Wind Speed 4 mph (West)    
Max Wind Speed 14 mph    
Max Gust Speed 25 mph    
Visibility 10 miles    
Events      
Averages and records for this station are not official NWS values.
T = Trace of Precipitation, MM = Missing Value Source: NWS Daily Summary

Daily Weather History Graph

Daily Weather History Graph

Search for Another Location

Airport or City:

Trip Planner

Search our weather history database for the weather conditions in past years. The results will help you decide how hot, cold, wet, or windy it might be!

Date:

Astronomy

Oct. 23, 2013 Rise Set
Actual Time 7:42 AM EDT 6:44 PM EDT
Civil Twilight 7:16 AM EDT 7:10 PM EDT
Nautical Twilight 6:47 AM EDT 7:40 PM EDT
Astronomical Twilight 6:17 AM EDT 8:09 PM EDT
Moon 10:20 PM EDT (10/23) 11:52 AM EDT (10/23)
Length of Visible Light 11h 54m
Length of Day
11h 02m
Waning Gibbous, 79% of the Moon is Illuminated
Oct 23
Waning Gibbous
Oct 26
Last Quarter
Nov 3
New
Nov 10
First Quarter
Nov 17
Full

Hourly Weather History & Observations

Time (EDT) Temp. Windchill Dew Point Humidity Pressure Visibility Wind Dir Wind Speed Gust Speed Precip Events Conditions
12:15 AM 55.4 °F - 55.4 °F 100% 29.83 in 7.0 mi West 3.5 mph - N/A   Scattered Clouds
12:35 AM 53.6 °F - 53.6 °F 100% 29.82 in 10.0 mi WSW 3.5 mph - N/A   Clear
12:55 AM 51.8 °F - 51.8 °F 100% 29.81 in 3.0 mi WSW 3.5 mph - N/A   Clear
1:15 AM 53.6 °F - 53.6 °F 100% 29.81 in 7.0 mi West 3.5 mph - N/A   Clear
1:35 AM 53.6 °F - 53.6 °F 100% 29.81 in 7.0 mi West 4.6 mph - N/A   Clear
1:55 AM 51.8 °F - 51.8 °F 100% 29.80 in 7.0 mi West 3.5 mph - N/A   Clear
2:15 AM 51.8 °F - 51.8 °F 100% 29.80 in 10.0 mi WSW 4.6 mph - N/A   Clear
2:35 AM 51.8 °F - 51.8 °F 100% 29.79 in 10.0 mi West 4.6 mph - N/A   Clear
2:55 AM 51.8 °F - 51.8 °F 100% 29.79 in 10.0 mi West 5.8 mph - N/A   Clear
3:15 AM 51.8 °F - 51.8 °F 100% 29.79 in 10.0 mi West 4.6 mph - N/A   Clear
3:35 AM 51.8 °F - 51.8 °F 100% 29.78 in 10.0 mi West 3.5 mph - N/A   Clear
3:55 AM 50.0 °F - 50.0 °F 100% 29.78 in 10.0 mi West 4.6 mph - N/A   Clear
4:15 AM 51.8 °F - 51.8 °F 100% 29.78 in 10.0 mi West 3.5 mph - N/A   Clear
4:35 AM 50.0 °F - 50.0 °F 100% 29.78 in 10.0 mi West 3.5 mph - N/A   Clear
4:55 AM 50.0 °F - 50.0 °F 100% 29.78 in 10.0 mi West 3.5 mph - N/A   Clear
5:15 AM 48.2 °F - 48.2 °F 100% 29.77 in 10.0 mi Calm Calm - N/A   Clear
5:35 AM 48.2 °F - 48.2 °F 100% 29.78 in 10.0 mi West 3.5 mph - N/A   Clear
5:55 AM 46.4 °F 45.2 °F 46.4 °F 100% 29.79 in 10.0 mi West 3.5 mph - N/A   Clear
6:15 AM 46.4 °F 45.2 °F 46.4 °F 100% 29.79 in 10.0 mi West 3.5 mph - N/A   Clear
6:35 AM 44.6 °F 43.1 °F 44.6 °F 100% 29.79 in 10.0 mi West 3.5 mph - N/A   Clear
6:47 AM 46.4 °F - 46.4 °F 100% 29.79 in 10.0 mi Calm Calm - N/A   Clear
7:47 AM 48.2 °F - 48.2 °F 100% 29.80 in 10.0 mi Calm Calm - N/A   Clear
8:47 AM 51.8 °F - 50.0 °F 94% 29.83 in 10.0 mi WSW 3.5 mph - N/A   Clear
9:47 AM 55.4 °F - 51.8 °F 88% 29.82 in 10.0 mi WSW 8.1 mph - N/A   Clear
10:47 AM 60.8 °F - 46.4 °F 59% 29.82 in 10.0 mi West 9.2 mph 19.6 mph N/A   Clear
11:47 AM 62.6 °F - 42.8 °F 48% 29.83 in 10.0 mi WNW 6.9 mph 17.3 mph N/A   Scattered Clouds
12:47 PM 64.4 °F - 37.4 °F 37% 29.83 in 10.0 mi West 10.4 mph - N/A   Scattered Clouds
1:47 PM 64.4 °F - 37.4 °F 37% 29.83 in 10.0 mi West 13.8 mph 23.0 mph N/A   Partly Cloudy
2:47 PM 64.4 °F - 32.0 °F 30% 29.83 in 10.0 mi WNW 10.4 mph 25.3 mph N/A   Partly Cloudy
3:47 PM 64.4 °F - 33.8 °F 32% 29.85 in 10.0 mi WNW 8.1 mph 23.0 mph N/A   Clear
4:47 PM 62.6 °F - 32.0 °F 32% 29.87 in 10.0 mi West 10.4 mph 19.6 mph N/A   Clear
5:47 PM 60.8 °F - 30.2 °F 31% 29.90 in 10.0 mi West 8.1 mph 17.3 mph N/A   Clear
6:47 PM 55.4 °F - 30.2 °F 38% 29.92 in 10.0 mi West 5.8 mph - N/A   Clear
7:53 PM 51.8 °F - 32.0 °F 47% 29.97 in 10.0 mi North 3.5 mph - N/A   Clear
8:47 PM 50.0 °F - 33.8 °F 54% 29.99 in 10.0 mi NE 5.8 mph - N/A   Clear
9:15 PM 48.2 °F - 32.0 °F 54% 30.01 in 10.0 mi Calm Calm - N/A   Clear
9:35 PM 46.4 °F 45.2 °F 32.0 °F 57% 30.01 in 10.0 mi NNE 3.5 mph - N/A   Clear
9:55 PM 46.4 °F - 32.0 °F 57% 30.01 in 10.0 mi Calm Calm - N/A   Clear
10:15 PM 44.6 °F - 32.0 °F 61% 30.03 in 10.0 mi Calm Calm - N/A   Clear
10:35 PM 46.4 °F 45.2 °F 32.0 °F 57% 30.04 in 10.0 mi NNE 3.5 mph - N/A   Clear
10:55 PM 44.6 °F - 32.0 °F 61% 30.05 in 10.0 mi Calm Calm - N/A   Clear
11:15 PM 44.6 °F - 32.0 °F 61% 30.05 in 10.0 mi Calm Calm - N/A   Clear
11:35 PM 41.0 °F - 32.0 °F 70% 30.05 in 10.0 mi Calm Calm - N/A   Clear
11:55 PM 42.8 °F - 32.0 °F 66% 30.07 in 10.0 mi Calm Calm - N/A   Clear